Regional Weather Roundup
Issued by NWS

Home | Current Version | Previous Version | Text Only | Print | Product List | Glossary On
Versions: 1 2 3 4 5 6 7 8 9 10 11 12 13 14 15 16 17 18 19 20 21 22 23 24 25 26 27 28 29 30 31 32 33 34 35 36 37 38 39 40 41 42 43 44 45 46 47 48 49 50
000
ASUS43 KLSX 202007
RWRMO

WEATHER SUMMARY FOR MISSOURI
NATIONAL WEATHER SERVICE SPRINGFIELD MO
300 PM CDT SUN MAY 20 2018

NOTE: "FAIR" INDICATES FEW OR NO CLOUDS BELOW 12,000 FEET WITH NO
       SIGNIFICANT WEATHER AND/OR OBSTRUCTIONS TO VISIBILITY.
       CURRENT SKY AND/OR WEATHER CONDITIONS ARE NOT AVAILABLE FOR
       CHILLICOTHE AND FARMINGTON.

MOZ001>031-035>038-043-044-053-054-202100-
...NORTHERN AND WESTERN MISSOURI...

CITY           SKY/WX    TMP DP  RH WIND       PRES   REMARKS
KANSAS CTY INT LGT RAIN  69  65  86 NE5       30.06F
KANSAS C DTWN  CLOUDY    71  64  78 N5        30.05F
LEE`S SUMMIT   PTSUNNY   73  66  78 N7        30.06S
ST JOSEPH      LGT RAIN  69  67  93 S3        30.06F
CHILLICOTHE      N/A     74  64  71 W3        30.07F
KIRKSVILLE     CLOUDY    74  63  68 N6        30.05F

$$
MOZ066>068-077>081-088>096-101>105-202100-
...SOUTHWEST MISSOURI...

CITY           SKY/WX    TMP DP  RH WIND       PRES   REMARKS
SPRINGFIELD    CLOUDY    81  68  64 S8        30.04F
JOPLIN         PTSUNNY   79  68  69 SW5       30.01F
BRANSON        PTSUNNY   81  66  61 E6        30.06F

$$
MOZ032>034-039>042-045>050-055>058-069>072-202100-
...CENTRAL MISSOURI...

CITY           SKY/WX    TMP DP  RH WIND       PRES   REMARKS
COLUMBIA       CLOUDY    78  66  66 SE9       30.05F
JEFFERSON CITY MOSUNNY   78  66  66 E8        30.04F
ROLLA          SUNNY     76  64  66 E10       30.07F
SEDALIA        SUNNY     79  65  62 SE3       30.06F
WHITEMAN AFB   PTSUNNY   78  65  62 E5        30.00F
WARRENSBURG    CLOUDY    75  63  64 CALM      30.05S

$$
MOZ051-052-059>065-202100-
...EAST CENTRAL MISSOURI...

CITY           SKY/WX    TMP DP  RH WIND       PRES   REMARKS
ST LOUIS INTL  PTSUNNY   77  65  66 E8        30.07F
SPIRIT OF STL  MOSUNNY   77  65  66 E10       30.05F
ST CHARLES     SUNNY     77  68  73 E9        30.05F

$$
MOZ072>076-082>087-097>100-106>115-202100-
...SOUTH CENTRAL AND SOUTHEAST MISSOURI...

CITY           SKY/WX    TMP DP  RH WIND       PRES   REMARKS
CAPE GIRARDEAU FAIR      72  68  87 E8        30.08R
FARMINGTON     MOSUNNY   81  67  62 E8        30.08F
POPLAR BLUFF   FAIR      77  71  82 N5        30.04F
WEST PLAINS    CLOUDY    80  66  62 SE9       30.08F

$$




USA.gov is the U.S. government's official web portal to all federal, state and local government web resources and services.